Location: Coupvray
(48.8929°N, 2.7967°E)
Time: 23:48:07
(UTC+00:00)

Cosmos 724 - Pass Details

Date: 30 October 2020
Orbit: 851 x 943 km, 65.6° (Epoch: 28 November)

Event Time Altitude Azimuth Distance (km) Brightness Sun altitude
Exits shadow 05:08:30 - 326° (NW) 3,067 6.7 -14.4°
Reaches altitude 10° 05:09:54 10° 332° (NNW) 2,619 6.4 -14.1°
Maximum altitude 05:15:13 30° 32° (NNE) 1,609 5.9 -13.3°
Drops below altitude 10° 05:20:36 10° 93° (E) 2,652 8.3 -12.4°
Sets 05:23:30 0° 104° (ESE) 3,600 9.6 -11.9°
